Flag for U.S.A. Weather past 2 weeks in Winder, Georgia, U.S.A.

Now
78 °F

Clear.


Feels Like: 79 °F
Forecast: 63 / 79 °F
Wind: 5 mph from Southwest

Location: Winder-Barrow Airport

Current Time: Sep 21, 2014 at 11:11:40 PM

Latest Report: Sep 21, 2014 at 10:35 PM


Visibility: 10 mi

Pressure: 29.99 "Hg

Humidity: 69%

Dew point: 66 °F

Location of WinderLocation

Historic Weather in Winder — Graph

°F

Winder temperature yesterday

Maximum temperature yesterday: 83 °F (at 3:15 PM)
Minimum temperature yesterday: 66 °F (at 4:55 AM)
Average temperature yesterday: 72 °F

Past Weeks' High & Low Weather Summary

 TemperatureHumidityPressure
High92 °F (Sep 12, 4:15 PM)100% (Sep 11, 4:15 AM)30.27 "Hg (Sep 11, 4:15 AM)
Low63 °F (Sep 21, 7:15 AM)46% (Sep 17, 3:35 PM)29.92 "Hg (Sep 17, 4:15 PM)
Average76 °F85%30.09 "Hg
* Reported Sep 6 9:15 PM — Sep 21 9:55 PM, Winder, Weather by CustomWeather, © 2014

Note: Actual official high and low records may vary slightly from our data, if they occured in-between our weather recording intervals... More about our weather records

Advertising

Winder weather history for previous 24 hours

 ConditionsComfort  
Time TempWeatherWind HumidityBarometerVisibility
9:55 PM
Sep 21
78 °FClear.6 mph68%29.99 "Hg10 mi
9:35 PM79 °FClear.5 mph67%29.99 "Hg10 mi
9:15 PM79 °FClear.3 mph66%29.98 "Hg10 mi
8:55 PM79 °FClear.5 mph65%29.98 "Hg10 mi
8:15 PM81 °FSunny.5 mph62%29.97 "Hg10 mi
7:55 PM82 °FSunny.5 mph61%29.97 "Hg10 mi
7:35 PM82 °FSunny.No wind60%29.97 "Hg10 mi
7:15 PM84 °FSunny.5 mph56%29.96 "Hg10 mi
6:55 PM85 °FSunny.No wind54%29.96 "Hg10 mi
6:35 PM86 °FSunny.6 mph52%29.96 "Hg10 mi
6:15 PM87 °FSunny.7 mph49%29.96 "Hg10 mi
5:55 PM87 °FSunny.10 mph49%29.96 "Hg10 mi
5:35 PM88 °FScattered clouds.12 mph49%29.96 "Hg10 mi
5:15 PM88 °FSunny.12 mph48%29.96 "Hg10 mi
4:55 PM88 °FScattered clouds.8 mph49%29.96 "Hg10 mi
4:15 PM87 °FSunny.10 mph51%29.98 "Hg10 mi
3:55 PM87 °FScattered clouds.10 mph52%29.98 "Hg10 mi
3:35 PM89 °FPartly sunny.9 mph50%29.98 "Hg10 mi
3:15 PM88 °FScattered clouds.10 mph48%29.99 "Hg10 mi
2:55 PM88 °FScattered clouds.14 mph47%29.99 "Hg10 mi
2:15 PM87 °FScattered clouds.13 mph50%30.02 "Hg10 mi
1:55 PM87 °FScattered clouds.14 mph50%30.02 "Hg10 mi
1:35 PM87 °FScattered clouds.12 mph51%30.03 "Hg10 mi
1:15 PM86 °FSunny.10 mph52%30.04 "Hg10 mi
12:55 PM85 °FSunny.9 mph54%30.05 "Hg10 mi
12:35 PM85 °FSunny.14 mph54%30.06 "Hg10 mi
12:15 PM84 °FSunny.10 mph55%30.07 "Hg10 mi
11:55 AM84 °FSunny.9 mph56%30.07 "Hg10 mi
11:35 AM83 °FSunny.9 mph58%30.07 "Hg10 mi
11:15 AM83 °FSunny.8 mph60%30.08 "Hg10 mi
10:55 AM81 °FSunny.9 mph60%30.08 "Hg10 mi
10:15 AM78 °FSunny.9 mph64%30.08 "Hg10 mi
9:55 AM76 °FSunny.7 mph68%30.08 "Hg10 mi
9:35 AM74 °FSunny.7 mph71%30.08 "Hg10 mi
9:15 AM73 °FSunny.5 mph77%30.07 "Hg10 mi
8:55 AM71 °FSunny.3 mph81%30.07 "Hg10 mi
8:35 AM69 °FSunny.No wind87%30.07 "Hg10 mi
8:15 AM66 °FClear.3 mph93%30.07 "Hg10 mi
7:55 AM63 °FClear.3 mph99%30.06 "Hg10 mi
7:35 AM63 °FClear.No wind99%30.06 "Hg10 mi
7:15 AM63 °FClear.No wind99%30.05 "Hg10 mi
6:55 AM64 °FClear.No wind100%30.05 "Hg7 mi
6:35 AM64 °FClear.No wind99%30.05 "Hg10 mi
6:15 AM64 °FClear.No wind96%30.04 "Hg10 mi
5:15 AM65 °FClear.No wind94%30.03 "Hg10 mi
4:55 AM64 °FClear.No wind96%30.03 "Hg10 mi
4:35 AM64 °FClear.No wind95%30.03 "Hg10 mi
4:15 AM65 °FClear.3 mph91%30.04 "Hg10 mi
3:55 AM64 °FClear.3 mph94%30.03 "Hg10 mi
3:35 AM64 °FClear.No wind95%30.04 "Hg10 mi
3:15 AM64 °FClear.No wind95%30.04 "Hg10 mi
2:55 AM65 °FClear.3 mph94%30.05 "Hg10 mi
2:35 AM65 °FClear.No wind96%30.05 "Hg10 mi
2:15 AM65 °FClear.No wind94%30.06 "Hg10 mi
1:55 AM65 °FPassing clouds.No wind92%30.06 "Hg10 mi
1:35 AM65 °FPassing clouds.No wind94%30.07 "Hg10 mi
1:15 AM66 °FPassing clouds.No wind93%30.08 "Hg10 mi
12:55 AM66 °FClear.No wind91%30.08 "Hg10 mi
12:15 AM68 °FClear.No wind86%30.08 "Hg10 mi
11:55 PM
Sep 20
67 °FClear.No wind87%30.09 "Hg10 mi
11:15 PM67 °FClear.No wind90%30.09 "Hg10 mi
Weather by CustomWeather, © 2014

See weather overviewHow to use our weather pages